Time,TemperatureF,DewpointF,PressureIn,WindDirection,WindDirectionDegrees,WindSpeedMPH,WindSpeedGustMPH,Humidity,HourlyPrecipIn,Conditions,Clouds,dailyrainin,SolarRadiationWatts/m^2,SoftwareType,DateUTC
2013-03-25 00:02:00,32.0,26.0,-100.00,West,264,2.0,3.0,77,0.00,,,0.00,0.000000,,2013-03-25 07:02:00,
2013-03-25 00:12:00,32.0,26.0,-100.00,West,264,2.0,3.0,77,0.00,,,0.00,0.000000,,2013-03-25 07:12:00,
2013-03-25 00:42:00,33.0,26.0,-100.00,South,175,2.0,3.0,74,0.00,,,-99.99,0.000000,,2013-03-25 07:42:00,
2013-03-25 00:53:00,33.0,26.0,-100.00,South,175,2.0,3.0,74,0.00,,,-99.99,0.000000,,2013-03-25 07:53:00,
2013-03-25 01:02:00,33.0,26.0,-100.00,South,175,2.0,3.0,74,0.00,,,-99.99,0.000000,,2013-03-25 08:02:00,
2013-03-25 01:11:00,33.0,26.0,-100.00,South,175,2.0,3.0,74,0.00,,,-99.99,0.000000,,2013-03-25 08:11:00,
2013-03-25 01:43:00,33.0,26.0,-100.00,SSE,162,4.0,5.0,74,0.00,,,0.00,0.000000,,2013-03-25 08:43:00,
2013-03-25 01:52:00,33.0,26.0,-100.00,SSE,162,4.0,5.0,74,0.00,,,0.00,0.000000,,2013-03-25 08:52:00,
2013-03-25 02:02:00,33.0,26.0,-100.00,SSE,162,4.0,5.0,74,0.00,,,0.00,0.000000,,2013-03-25 09:02:00,
2013-03-25 02:11:00,33.0,26.0,-100.00,SSE,162,4.0,5.0,74,0.00,,,0.00,0.000000,,2013-03-25 09:11:00,
2013-03-25 02:33:00,33.0,25.0,-100.00,South,189,1.0,5.0,71,0.00,,,0.00,0.000000,,2013-03-25 09:33:00,
2013-03-25 02:43:00,33.0,25.0,-100.00,South,189,1.0,5.0,71,0.00,,,0.00,0.000000,,2013-03-25 09:43:00,
2013-03-25 02:52:00,33.0,25.0,-100.00,South,189,1.0,5.0,71,0.00,,,0.00,0.000000,,2013-03-25 09:52:00,
2013-03-25 03:02:00,33.0,25.0,-100.00,South,189,1.0,5.0,71,0.00,,,0.00,0.000000,,2013-03-25 10:02:00,
2013-03-25 03:12:00,33.0,25.0,-100.00,South,189,1.0,5.0,71,0.00,,,0.00,0.000000,,2013-03-25 10:12:00,
2013-03-25 03:42:00,33.0,25.0,-100.00,SSE,150,3.0,4.0,73,0.00,,,0.00,0.000000,,2013-03-25 10:42:00,
2013-03-25 03:53:00,33.0,25.0,-100.00,SSE,150,3.0,4.0,73,0.00,,,0.00,0.000000,,2013-03-25 10:53:00,
2013-03-25 04:02:00,33.0,25.0,-100.00,SSE,150,3.0,4.0,73,0.00,,,0.00,0.000000,,2013-03-25 11:02:00,
2013-03-25 04:12:00,33.0,25.0,-100.00,SSE,150,3.0,4.0,73,0.00,,,0.00,0.000000,,2013-03-25 11:12:00,
2013-03-25 04:32:00,32.0,24.0,-100.00,WNW,300,3.0,4.0,72,0.00,,,0.00,0.000000,,2013-03-25 11:32:00,
2013-03-25 04:42:00,32.0,24.0,-100.00,WNW,300,3.0,4.0,72,0.00,,,0.00,0.000000,,2013-03-25 11:42:00,
2013-03-25 04:52:00,32.0,24.0,-100.00,WNW,300,3.0,4.0,72,0.00,,,0.00,0.000000,,2013-03-25 11:52:00,
2013-03-25 05:02:00,32.0,24.0,-100.00,WNW,300,3.0,4.0,72,0.00,,,0.00,0.000000,,2013-03-25 12:02:00,
2013-03-25 05:11:00,32.0,24.0,-100.00,WNW,300,3.0,4.0,72,0.00,,,0.00,0.000000,,2013-03-25 12:11:00,
2013-03-25 05:33:00,31.0,25.0,-100.00,North,358,4.0,5.0,78,0.00,,,0.00,0.000000,,2013-03-25 12:33:00,
2013-03-25 05:43:00,31.0,25.0,-100.00,North,358,4.0,5.0,78,0.00,,,0.00,0.000000,,2013-03-25 12:43:00,
2013-03-25 05:53:00,31.0,25.0,-100.00,North,358,4.0,5.0,78,0.00,,,0.00,0.000000,,2013-03-25 12:53:00,
2013-03-25 06:02:00,31.0,25.0,-100.00,North,358,4.0,5.0,78,0.00,,,0.00,0.000000,,2013-03-25 13:02:00,
2013-03-25 06:12:00,31.0,25.0,-100.00,North,358,4.0,5.0,78,0.00,,,0.00,0.000000,,2013-03-25 13:12:00,
2013-03-25 06:32:00,30.0,25.0,-100.00,West,263,2.0,5.0,82,0.00,,,0.00,0.000000,,2013-03-25 13:32:00,
2013-03-25 06:43:00,30.0,25.0,-100.00,West,263,2.0,5.0,82,0.00,,,0.00,0.000000,,2013-03-25 13:43:00,
2013-03-25 06:52:00,30.0,25.0,-100.00,West,263,2.0,5.0,82,0.00,,,0.00,0.000000,,2013-03-25 13:52:00,
2013-03-25 07:02:00,30.0,25.0,-100.00,West,263,2.0,5.0,82,0.00,,,0.00,0.000000,,2013-03-25 14:02:00,
2013-03-25 07:12:00,30.0,25.0,-100.00,West,263,2.0,5.0,82,0.00,,,0.00,0.000000,,2013-03-25 14:12:00,
2013-03-25 07:32:00,29.0,24.0,-100.00,WSW,244,4.0,5.0,82,0.00,,,0.00,2.000000,,2013-03-25 14:32:00,
2013-03-25 07:43:00,29.0,24.0,-100.00,WSW,244,4.0,5.0,82,0.00,,,0.00,2.000000,,2013-03-25 14:43:00,
2013-03-25 07:52:00,29.0,24.0,-100.00,WSW,244,4.0,5.0,82,0.00,,,0.00,2.000000,,2013-03-25 14:52:00,
2013-03-25 08:02:00,29.0,24.0,-100.00,WSW,244,4.0,5.0,82,0.00,,,0.00,2.000000,,2013-03-25 15:02:00,
2013-03-25 08:11:00,29.0,24.0,-100.00,WSW,244,4.0,5.0,82,0.00,,,0.00,2.000000,,2013-03-25 15:11:00,
2013-03-25 08:43:00,33.0,26.0,-100.00,SSE,168,1.0,5.0,76,0.00,,,0.00,71.000000,,2013-03-25 15:43:00,
2013-03-25 08:53:00,33.0,26.0,-100.00,SSE,168,1.0,5.0,76,0.00,,,0.00,71.000000,,2013-03-25 15:53:00,
2013-03-25 09:03:00,33.0,26.0,-100.00,SSE,168,1.0,5.0,76,0.00,,,0.00,71.000000,,2013-03-25 16:03:00,
2013-03-25 09:12:00,33.0,26.0,-100.00,SSE,168,1.0,5.0,76,0.00,,,0.00,71.000000,,2013-03-25 16:12:00,
2013-03-25 09:43:00,37.0,27.0,-100.00,NNE,29,3.0,8.0,66,0.00,,,-99.99,301.000000,,2013-03-25 16:43:00,
2013-03-25 09:53:00,37.0,27.0,-100.00,NNE,29,3.0,8.0,66,0.00,,,-99.99,301.000000,,2013-03-25 16:53:00,
2013-03-25 10:02:00,37.0,27.0,-100.00,NNE,29,3.0,8.0,66,0.00,,,-99.99,301.000000,,2013-03-25 17:02:00,
2013-03-25 10:12:00,37.0,27.0,-100.00,NNE,29,3.0,8.0,66,0.00,,,-99.99,301.000000,,2013-03-25 17:12:00,
2013-03-25 10:43:00,41.0,29.0,-100.00,North,359,5.0,7.0,62,0.00,,,0.00,508.000000,,2013-03-25 17:43:00,
2013-03-25 10:52:00,41.0,29.0,-100.00,North,359,5.0,7.0,62,0.00,,,0.00,508.000000,,2013-03-25 17:52:00,
2013-03-25 11:03:00,41.0,29.0,-100.00,North,359,5.0,7.0,62,0.00,,,0.00,508.000000,,2013-03-25 18:03:00,
2013-03-25 11:12:00,41.0,29.0,-100.00,North,359,5.0,7.0,62,0.00,,,0.00,508.000000,,2013-03-25 18:12:00,
2013-03-25 11:43:00,45.0,28.0,-100.00,North,7,5.0,9.0,52,0.00,,,0.00,698.000000,,2013-03-25 18:43:00,
2013-03-25 11:53:00,45.0,28.0,-100.00,North,7,5.0,9.0,52,0.00,,,0.00,698.000000,,2013-03-25 18:53:00,
2013-03-25 12:02:00,45.0,28.0,-100.00,North,7,5.0,9.0,52,0.00,,,0.00,698.000000,,2013-03-25 19:02:00,
2013-03-25 12:12:00,45.0,28.0,-100.00,North,7,5.0,9.0,52,0.00,,,0.00,698.000000,,2013-03-25 19:12:00,
2013-03-25 12:43:00,46.0,28.0,-100.00,NNW,341,8.0,12.0,49,0.00,,,0.00,745.000000,,2013-03-25 19:43:00,
2013-03-25 12:52:00,46.0,28.0,-100.00,NNW,341,8.0,12.0,49,0.00,,,0.00,745.000000,,2013-03-25 19:52:00,
2013-03-25 13:02:00,46.0,28.0,-100.00,NNW,341,8.0,12.0,49,0.00,,,0.00,745.000000,,2013-03-25 20:02:00,
2013-03-25 13:12:00,46.0,28.0,-100.00,NNW,341,8.0,12.0,49,0.00,,,0.00,745.000000,,2013-03-25 20:12:00,
2013-03-25 13:42:00,50.0,31.0,-100.00,NNW,341,8.0,12.0,47,0.00,,,0.00,860.000000,,2013-03-25 20:42:00,
2013-03-25 13:52:00,50.0,31.0,-100.00,NNW,341,8.0,12.0,47,0.00,,,0.00,860.000000,,2013-03-25 20:52:00,
2013-03-25 14:02:00,50.0,31.0,-100.00,NNW,341,8.0,12.0,47,0.00,,,0.00,860.000000,,2013-03-25 21:02:00,
2013-03-25 14:11:00,50.0,31.0,-100.00,NNW,341,8.0,12.0,47,0.00,,,0.00,860.000000,,2013-03-25 21:11:00,
2013-03-25 14:33:00,50.0,30.0,-100.00,NNW,339,7.0,12.0,46,0.00,,,0.00,602.000000,,2013-03-25 21:33:00,
2013-03-25 14:43:00,50.0,30.0,-100.00,NNW,339,7.0,12.0,46,0.00,,,0.00,602.000000,,2013-03-25 21:43:00,
2013-03-25 14:52:00,50.0,30.0,-100.00,NNW,339,7.0,12.0,46,0.00,,,0.00,602.000000,,2013-03-25 21:52:00,
2013-03-25 15:03:00,50.0,30.0,-100.00,NNW,339,7.0,12.0,46,0.00,,,0.00,602.000000,,2013-03-25 22:03:00,
2013-03-25 15:12:00,50.0,30.0,-100.00,NNW,339,7.0,12.0,46,0.00,,,0.00,602.000000,,2013-03-25 22:12:00,
2013-03-25 15:42:00,48.0,29.0,-100.00,WNW,296,8.0,13.0,47,0.00,,,0.00,453.000000,,2013-03-25 22:42:00,
2013-03-25 15:52:00,48.0,29.0,-100.00,WNW,296,8.0,13.0,47,0.00,,,0.00,453.000000,,2013-03-25 22:52:00,
2013-03-25 16:02:00,48.0,29.0,-100.00,WNW,296,8.0,13.0,47,0.00,,,0.00,453.000000,,2013-03-25 23:02:00,
2013-03-25 16:11:00,48.0,29.0,-100.00,WNW,296,8.0,13.0,47,0.00,,,0.00,453.000000,,2013-03-25 23:11:00,
2013-03-25 16:43:00,47.0,28.0,-100.00,NW,304,8.0,12.0,48,0.00,,,0.00,253.000000,,2013-03-25 23:43:00,
2013-03-25 16:52:00,47.0,28.0,-100.00,NW,304,8.0,12.0,48,0.00,,,0.00,253.000000,,2013-03-25 23:52:00,
2013-03-25 17:02:00,47.0,28.0,-100.00,NW,304,8.0,12.0,48,0.00,,,0.00,253.000000,,2013-03-26 00:02:00,
2013-03-25 17:11:00,47.0,28.0,-100.00,NW,304,8.0,12.0,48,0.00,,,0.00,253.000000,,2013-03-26 00:11:00,
2013-03-25 18:33:00,45.0,28.0,-100.00,North,359,7.0,11.0,51,-99.99,,,0.00,100.000000,,2013-03-26 01:33:00,
2013-03-25 18:42:00,45.0,28.0,-100.00,North,359,7.0,11.0,51,-99.99,,,0.00,100.000000,,2013-03-26 01:42:00,
2013-03-25 18:52:00,45.0,28.0,-100.00,North,359,7.0,11.0,51,-99.99,,,0.00,100.000000,,2013-03-26 01:52:00,
2013-03-25 19:02:00,45.0,28.0,-100.00,North,359,7.0,11.0,51,-99.99,,,0.00,100.000000,,2013-03-26 02:02:00,
2013-03-25 19:11:00,45.0,28.0,-100.00,North,359,7.0,11.0,51,-99.99,,,0.00,100.000000,,2013-03-26 02:11:00,
2013-03-25 19:43:00,41.0,25.0,-100.00,NNE,19,7.0,13.0,52,0.00,,,0.00,34.000000,,2013-03-26 02:43:00,
2013-03-25 19:52:00,41.0,25.0,-100.00,NNE,19,7.0,13.0,52,0.00,,,0.00,34.000000,,2013-03-26 02:52:00,
2013-03-25 20:02:00,41.0,25.0,-100.00,NNE,19,7.0,13.0,52,0.00,,,0.00,34.000000,,2013-03-26 03:02:00,
2013-03-25 20:12:00,41.0,25.0,-100.00,NNE,19,7.0,13.0,52,0.00,,,0.00,34.000000,,2013-03-26 03:12:00,
2013-03-25 20:34:00,39.0,25.0,-100.00,North,350,9.0,12.0,56,0.00,,,0.00,1.000000,,2013-03-26 03:34:00,
2013-03-25 20:43:00,39.0,25.0,-100.00,North,350,9.0,12.0,56,0.00,,,0.00,1.000000,,2013-03-26 03:43:00,
2013-03-25 20:53:00,39.0,25.0,-100.00,North,350,9.0,12.0,56,0.00,,,0.00,1.000000,,2013-03-26 03:53:00,
2013-03-25 21:03:00,39.0,25.0,-100.00,North,350,9.0,12.0,56,0.00,,,0.00,1.000000,,2013-03-26 04:03:00,
2013-03-25 21:12:00,39.0,25.0,-100.00,North,350,9.0,12.0,56,0.00,,,0.00,1.000000,,2013-03-26 04:12:00,
2013-03-25 21:33:00,39.0,25.0,-100.00,NNW,335,5.0,11.0,58,0.00,,,0.00,0.000000,,2013-03-26 04:33:00,
2013-03-25 21:43:00,39.0,25.0,-100.00,NNW,335,5.0,11.0,58,0.00,,,0.00,0.000000,,2013-03-26 04:43:00,
2013-03-25 21:52:00,39.0,25.0,-100.00,NNW,335,5.0,11.0,58,0.00,,,0.00,0.000000,,2013-03-26 04:52:00,
2013-03-25 22:02:00,39.0,25.0,-100.00,NNW,335,5.0,11.0,58,0.00,,,0.00,0.000000,,2013-03-26 05:02:00,
2013-03-25 22:11:00,39.0,25.0,-100.00,NNW,335,5.0,11.0,58,0.00,,,0.00,0.000000,,2013-03-26 05:11:00,
2013-03-25 22:42:00,38.0,25.0,-100.00,West,263,3.0,7.0,59,0.00,,,0.00,0.000000,,2013-03-26 05:42:00,
2013-03-25 22:52:00,38.0,25.0,-100.00,West,263,3.0,7.0,59,0.00,,,0.00,0.000000,,2013-03-26 05:52:00,
2013-03-25 23:02:00,38.0,25.0,-100.00,West,263,3.0,7.0,59,0.00,,,0.00,0.000000,,2013-03-26 06:02:00,
2013-03-25 23:12:00,38.0,25.0,-100.00,West,263,3.0,7.0,59,0.00,,,0.00,0.000000,,2013-03-26 06:12:00,
2013-03-25 23:32:00,37.0,25.0,-100.00,NNW,333,4.0,5.0,62,0.00,,,0.00,0.000000,,2013-03-26 06:32:00,
2013-03-25 23:43:00,37.0,25.0,-100.00,NNW,333,4.0,5.0,62,0.00,,,0.00,0.000000,,2013-03-26 06:43:00,
2013-03-25 23:52:00,37.0,25.0,-100.00,NNW,333,4.0,5.0,62,0.00,,,0.00,0.000000,,2013-03-26 06:52:00,